This is the latest recevied weather packets stored in our database for station/object Rana. If no packets are shown the sender has not sent any weather packets the latest 1 day(s).
| Time | Temp. | Humidity | Pressure | Rain* | Wind** | Luminosity | Snow |
|---|---|---|---|---|---|---|---|
| 1777946110 | 15° C | 58% | - | - | 4.92 m/s, 1° | - | - |
| 1777945811 | 15° C | 58% | - | - | 4.02 m/s, 4° | - | - |
| 1777945510 | 15° C | 58% | - | - | 4.92 m/s, 10° | - | - |
| 1777945210 | 15° C | 58% | - | - | 4.02 m/s, 347° | - | - |
| 1777944909 | 15° C | 58% | - | - | 4.02 m/s, 341° | - | - |
| 1777944610 | 15° C | 58% | - | - | 3.13 m/s, 337° | - | - |
| 1777944311 | 15° C | 58% | - | - | 1.79 m/s, 319° | - | - |
| 1777944014 | 15° C | 59% | - | - | 4.02 m/s, 338° | - | - |
| 1777943711 | 15° C | 59% | - | - | 4.02 m/s, 340° | - | - |
| 1777943410 | 15° C | 58% | - | - | 4.02 m/s, 353° | - | - |
| 1777943110 | 15° C | 58% | - | - | 4.02 m/s, 8° | - | - |
| 1777942810 | 15° C | 59% | - | - | 4.02 m/s, 1° | - | - |
| 1777942511 | 15° C | 59% | - | - | 4.02 m/s, 1° | - | - |
| 1777942211 | 15° C | 59% | - | - | 4.02 m/s, 39° | - | - |
| 1777941911 | 15° C | 58% | - | - | 3.13 m/s, 24° | - | - |
| 1777941610 | 15° C | 58% | - | - | 3.13 m/s, 6° | - | - |
| 1777941310 | 15° C | 57% | - | - | 1.79 m/s, 22° | - | - |
| 1777941010 | 15° C | 57% | - | - | 3.13 m/s, 40° | - | - |
| 1777940710 | 15° C | 58% | - | - | 1.79 m/s, 37° | - | - |
| 1777940418 | 15° C | 58% | - | - | 3.13 m/s, 52° | - | - |
| 1777940111 | 15° C | 59% | - | - | 1.79 m/s, 47° | - | - |
| 1777939811 | 15° C | 59% | - | - | 4.02 m/s, 77° | - | - |
| 1777939511 | 15° C | 59% | - | - | 4.02 m/s, 80° | - | - |
| 1777939211 | 15° C | 59% | - | - | 3.13 m/s, 79° | - | - |
| 1777938910 | 15° C | 59% | - | - | 4.02 m/s, 92° | - | - |
* Rain since midnight (hover to see other rain measurements)
** Current wind speed in m/s (hover to see current wind gust speed)